Weather History for Hot Springs, VA

Change the Weather History Date:

Tuesday, January 15, 2013

  Actual Average Record
Temperature  
Mean Temperature 36 °F -  
Max Temperature 42 °F 30 °F 57 °F (2007)
Min Temperature 30 °F 17 °F 5 °F (2003)
Degree Days  
Heating Degree Days 29    
Moisture  
Dew Point 34 °F    
Average Humidity 100    
Maximum Humidity 100    
Minimum Humidity 93    
Precipitation  
Precipitation 0.75 in - - ()
Sea Level Pressure  
Sea Level Pressure 30.13 in    
Wind  
Wind Speed 6 mph (ESE)    
Max Wind Speed 12 mph    
Max Gust Speed -    
Visibility 1 miles    
Events Rain , Snow    
Averages and records for this station are not official NWS values.
T = Trace of Precipitation, MM = Missing Value Source: NWS Daily Summary

Daily Weather History Graph

Daily Weather History Graph

Search for Another Location

Airport:

Trip Planner

Search our weather history database for the weather conditions in past years. The results will help you decide how hot, cold, wet, or windy it might be!

Date:

Astronomy

Jan. 15, 2013 Rise Set
Actual Time 7:33 AM EST 5:24 PM EST
Civil Twilight 7:05 AM EST 5:52 PM EST
Nautical Twilight 6:32 AM EST 6:25 PM EST
Astronomical Twilight 6:01 AM EST 6:56 PM EST
Moon 9:43 AM EST (1/15) 10:06 PM EST (1/15)
Length of Visible Light 10h 47m
Length of Day
9h 50m
Waxing Crescent, 19% of the Moon is Illuminated
Jan 15
Waxing Crescent
Jan 18
First Quarter
Jan 26
Full
Feb 3
Last Quarter
Feb 10
New

Hourly Weather History & Observations

Time (EST) Temp. Windchill Dew Point Humidity Pressure Visibility Wind Dir Wind Speed Gust Speed Precip Events Conditions
12:15 AM 39.2 °F - 39.2 °F 100% 30.20 in 0.8 mi Calm Calm - 0.02 in Rain Rain
12:35 AM 39.2 °F 37.0 °F 39.2 °F 100% 30.19 in 5.0 mi SE 3.5 mph - 0.04 in Rain Light Rain
12:55 AM 37.4 °F 33.8 °F 37.4 °F 100% 30.18 in 0.2 mi ESE 4.6 mph - 0.01 in Rain Rain
1:15 AM 37.4 °F - 37.4 °F 100% 30.18 in 0.2 mi Calm Calm - 0.03 in Rain Light Rain
1:35 AM 37.4 °F 34.9 °F 37.4 °F 100% 30.18 in 0.2 mi South 3.5 mph - 0.03 in Rain Light Rain
1:55 AM 37.4 °F - 37.4 °F 100% 30.18 in 4.0 mi Calm Calm - N/A   Drizzle
2:15 AM 39.2 °F 35.0 °F 39.2 °F 100% 30.18 in 10.0 mi South 5.8 mph - 0.01 in   Drizzle
2:35 AM 39.2 °F 35.9 °F 39.2 °F 100% 30.19 in 2.0 mi SSW 4.6 mph - 0.01 in Rain Light Rain
2:55 AM 42.8 °F 39.3 °F 42.8 °F 100% 30.16 in 10.0 mi SE 5.8 mph - N/A   Overcast
3:15 AM 42.8 °F 40.1 °F 42.8 °F 100% 30.17 in 10.0 mi South 4.6 mph - N/A   Overcast
3:35 AM 42.8 °F 38.6 °F 42.8 °F 100% 30.15 in 10.0 mi SSE 6.9 mph - N/A   Overcast
4:15 AM 42.8 °F 39.3 °F 41.0 °F 93% 30.14 in 10.0 mi SSE 5.8 mph - N/A   Overcast
4:35 AM 41.0 °F 35.8 °F 41.0 °F 100% 30.13 in 0.8 mi SSE 8.1 mph - N/A   Overcast
4:55 AM 39.2 °F 33.0 °F 39.2 °F 100% 30.12 in 0.2 mi SE 9.2 mph - N/A Rain Light Rain
5:15 AM 37.4 °F 33.8 °F 37.4 °F 100% 30.14 in 0.2 mi South 4.6 mph - N/A Rain Light Rain
5:55 AM 37.4 °F 32.8 °F 37.4 °F 100% 30.13 in 0.2 mi SE 5.8 mph - N/A Rain Light Rain
6:15 AM 35.6 °F 30.7 °F 35.6 °F 100% 30.15 in 0.2 mi East 5.8 mph - 0.01 in Rain Light Rain
6:35 AM 35.6 °F 31.7 °F 35.6 °F 100% 30.15 in 0.2 mi East 4.6 mph - 0.02 in Rain Light Rain
6:55 AM 35.6 °F 30.7 °F 35.6 °F 100% 30.17 in 0.2 mi ENE 5.8 mph - N/A Rain Light Rain
7:15 AM 35.6 °F 29.9 °F 35.6 °F 100% 30.17 in 0.2 mi East 6.9 mph - 0.01 in Rain Light Rain
7:35 AM 35.6 °F 30.7 °F 35.6 °F 100% 30.20 in 0.2 mi North 5.8 mph - 0.01 in Rain Light Rain
7:55 AM 35.6 °F 27.5 °F 35.6 °F 100% 30.14 in 0.2 mi ESE 11.5 mph - N/A Rain Light Rain
8:15 AM 33.8 °F 27.7 °F 33.8 °F 100% 30.23 in 0.2 mi NNW 6.9 mph - N/A Snow Snow
8:35 AM 35.6 °F 31.7 °F 35.6 °F 100% 30.22 in 0.2 mi ESE 4.6 mph - N/A Rain Light Rain
8:55 AM 33.8 °F 29.6 °F 33.8 °F 100% 30.22 in 0.2 mi East 4.6 mph - 0.01 in Snow Light Snow
9:15 AM 33.8 °F 26.4 °F 33.8 °F 100% 30.22 in 0.2 mi ENE 9.2 mph - 0.03 in Rain Light Rain
9:35 AM 33.8 °F 27.7 °F 33.8 °F 100% 30.23 in 0.2 mi East 6.9 mph - 0.05 in Rain Light Rain
9:55 AM 33.8 °F 26.4 °F 33.8 °F 100% 30.22 in 0.2 mi East 9.2 mph - N/A Rain Rain
10:15 AM 33.8 °F 27.7 °F 33.8 °F 100% 30.22 in 0.2 mi East 6.9 mph - 0.01 in Rain Heavy Rain
10:35 AM 33.8 °F 27.0 °F 33.8 °F 100% 30.21 in 0.2 mi East 8.1 mph - 0.01 in Snow Heavy Snow
10:55 AM 33.8 °F 25.8 °F 33.8 °F 100% 30.21 in 0.2 mi East 10.4 mph - N/A Rain Rain
11:15 AM 33.8 °F 25.8 °F 33.8 °F 100% 30.20 in 0.2 mi East 10.4 mph - 0.01 in Rain Heavy Rain
11:35 AM 33.8 °F 27.0 °F 33.8 °F 100% 30.20 in 0.2 mi ENE 8.1 mph - 0.01 in Rain Heavy Rain
11:55 AM 33.8 °F 27.7 °F 33.8 °F 100% 30.19 in 0.2 mi East 6.9 mph - N/A Rain Rain
12:15 PM 33.8 °F 25.3 °F 33.8 °F 100% 30.14 in 0.2 mi East 11.5 mph - 0.02 in Rain Rain
12:35 PM 33.8 °F 26.4 °F 33.8 °F 100% 30.15 in 0.2 mi East 9.2 mph - 0.02 in Rain Light Rain
12:55 PM 33.8 °F 26.4 °F 33.8 °F 100% 30.15 in 0.2 mi East 9.2 mph - N/A Rain Rain
1:15 PM 33.8 °F 25.8 °F 33.8 °F 100% 30.13 in 0.2 mi ESE 10.4 mph - 0.01 in Rain Heavy Rain
1:35 PM 33.8 °F 26.4 °F 33.8 °F 100% 30.12 in 0.2 mi East 9.2 mph - 0.02 in Rain Heavy Rain
1:55 PM 33.8 °F 27.7 °F 33.8 °F 100% 30.14 in 0.2 mi East 6.9 mph - N/A Rain Rain
2:15 PM 33.8 °F 25.8 °F 33.8 °F 100% 30.12 in 0.2 mi ESE 10.4 mph - 0.03 in Rain Heavy Rain
2:35 PM 32.0 °F 23.6 °F 32.0 °F 100% 30.12 in 0.2 mi ESE 10.4 mph - 0.07 in Rain Rain
2:55 PM 32.0 °F 24.2 °F 32.0 °F 100% 30.12 in 0.2 mi ESE 9.2 mph - 0.03 in Snow Snow
3:15 PM 32.0 °F 26.4 °F 32.0 °F 100% 30.14 in 0.2 mi East 5.8 mph - 0.06 in   Overcast
3:35 PM 32.0 °F 23.0 °F 32.0 °F 100% 30.11 in 0.2 mi ESE 11.5 mph - 0.08 in   Overcast
3:55 PM 32.0 °F 23.6 °F 32.0 °F 100% 30.10 in 0.2 mi ESE 10.4 mph - N/A   Overcast
4:15 PM 32.0 °F 24.2 °F 32.0 °F 100% 30.12 in 0.2 mi East 9.2 mph - N/A   Overcast
4:35 PM 32.0 °F 24.2 °F 32.0 °F 100% 30.11 in 0.2 mi ESE 9.2 mph - 0.01 in   Overcast
4:55 PM 30.2 °F 21.9 °F 30.2 °F 100% 30.10 in 0.2 mi ESE 9.2 mph - N/A   Overcast
5:15 PM 30.2 °F 20.8 °F 30.2 °F 100% 30.10 in 0.2 mi ESE 11.5 mph - 0.01 in   Overcast
5:35 PM 32.0 °F 24.2 °F 32.0 °F 100% 30.10 in 0.2 mi ESE 9.2 mph - 0.01 in   Overcast
5:55 PM 32.0 °F 24.8 °F 32.0 °F 100% 30.11 in 0.2 mi SE 8.1 mph - 0.01 in   Overcast
6:15 PM 32.0 °F 24.8 °F 32.0 °F 100% 30.11 in 0.2 mi SE 8.1 mph - 0.03 in   Overcast
6:35 PM 32.0 °F 25.6 °F 32.0 °F 100% 30.10 in 0.2 mi SE 6.9 mph - 0.07 in   Overcast
6:55 PM 32.0 °F 25.6 °F 32.0 °F 100% 30.11 in 0.2 mi SE 6.9 mph - 0.01 in   Overcast
7:15 PM 32.0 °F 25.6 °F 32.0 °F 100% 30.10 in 0.2 mi ESE 6.9 mph - 0.03 in   Overcast
7:35 PM 32.0 °F 26.4 °F 32.0 °F 100% 30.11 in 0.2 mi ESE 5.8 mph - 0.05 in   Overcast
7:55 PM 30.2 °F 24.3 °F 30.2 °F 100% 30.10 in 0.2 mi East 5.8 mph - 0.01 in   Overcast
8:15 PM 30.2 °F 21.9 °F 30.2 °F 100% 30.06 in 0.2 mi East 9.2 mph - 0.02 in   Overcast
8:35 PM 30.2 °F 24.3 °F 30.2 °F 100% 30.07 in 0.2 mi East 5.8 mph - 0.06 in   Overcast
8:55 PM 30.2 °F 22.6 °F 30.2 °F 100% 30.06 in 0.2 mi East 8.1 mph - 0.01 in   Overcast
9:15 PM 30.2 °F 24.3 °F 30.2 °F 100% 30.05 in 0.2 mi East 5.8 mph - 0.03 in Snow Snow
9:35 PM 30.2 °F 24.3 °F 30.2 °F 100% 30.05 in 0.2 mi ESE 5.8 mph - 0.07 in   Overcast
9:55 PM 30.2 °F 23.4 °F 30.2 °F 100% 30.03 in 0.2 mi East 6.9 mph - 0.02 in   Overcast
10:15 PM 30.2 °F 25.4 °F 30.2 °F 100% 30.03 in 0.2 mi East 4.6 mph - 0.04 in   Overcast
10:35 PM 30.2 °F 24.3 °F 30.2 °F 100% 30.01 in 0.2 mi East 5.8 mph - 0.07 in   Overcast
10:55 PM 30.2 °F 25.4 °F 30.2 °F 100% 30.02 in 0.2 mi East 4.6 mph - N/A   Overcast
11:15 PM 30.2 °F 24.3 °F 30.2 °F 100% 30.01 in 0.2 mi East 5.8 mph - 0.03 in   Overcast
11:35 PM 30.2 °F 25.4 °F 30.2 °F 100% 30.00 in 0.2 mi East 4.6 mph - 0.06 in   Overcast
11:55 PM 30.2 °F 26.7 °F 30.2 °F 100% 30.01 in 0.2 mi East 3.5 mph - 0.01 in   Overcast